Regional Weather Roundup
Issued by NWS Bismarck, ND

Home | Current Version | Previous Version | Text Only | Print | Product List | Glossary On
Versions: 1 2 3 4 5 6 7 8 9 10 11 12 13 14 15 16 17 18 19 20 21 22 23 24 25 26 27 28 29 30 31 32 33 34 35 36 37 38 39 40 41 42 43 44 45 46 47 48 49 50
000
ASUS43 KBIS 280559
RWRBIS

NWR BROADCAST TEXT
NATIONAL WEATHER SERVICE BISMARCK ND
1200 AM CST SUN DEC 28 2014

NOTE: "FAIR" INDICATES FEW OR NO CLOUDS BELOW 12,000 FEET WITH NO
SIGNIFICANT WEATHER AND/OR OBSTRUCTIONS TO VISIBILITY.


CITY           SKY/WX    TMP DP  RH WIND       PRES   REMARKS
WILLISTON      MOCLDY    16  11  80 N8        30.02R WCI   5
MINOT          CLOUDY    10   5  80 N9        30.07R WCI  -3
MINOT AFB      NOT AVBL
BISMARCK       CLOUDY    15  12  88 CALM      30.05S
DICKINSON      NOT AVBL
GARRISON         N/A     15  12  88 NE9       30.03R WCI   3
HETTINGER ARPT PTCLDY    17  13  84 CALM      29.98S
JAMESTOWN      NOT AVBL
CARRINGTON     MOCLDY    14  14 100 MISG      30.05S
CROSBY         LGT SNOW  14  10  85 NE9       30.05F WCI   2
$$

CITY           SKY/WX    TMP DP  RH WIND       PRES   REMARKS
GRAND FORKS    CLOUDY     8   4  83 N15       30.12R WCI  -9
GRAND FORKS AF CLOUDY     9   5  85 N17       30.12R WCI -10
DEVILS LAKE    CLOUDY     5   0  78 NE12      30.07R WCI -11
FARGO          CLOUDY    23  19  85 NW5       30.04S WCI  17
GWINNER        CLEAR     18  16  93 SW10      30.05S WCI   6
$$

CITY           SKY/WX    TMP DP  RH WIND       PRES   REMARKS
ABERDEEN       PTCLDY    11   7  84 CALM      30.07S
MOBRIDGE       CLOUDY    17  13  84 N3        30.00F
BUFFALO          N/A     21  15  78 W9        29.89F WCI  11
RAPID CITY     CLOUDY    13   6  74 CALM      30.01F
GLASGOW        CLOUDY    22  18  85 E7        29.91F WCI  13
SIDNEY         MOCLDY    21  18  86 N6        30.00S WCI  14
WOLF POINT     CLOUDY    19  15  84 E10       29.97S WCI   7
GLENDIVE       CLOUDY    19  16  86 S6        29.95F WCI  11
MILES CITY     CLOUDY    22  18  85 SE6       29.94F WCI  14
BAKER          MOCLDY    23  17  78 SW12      29.94F WCI  12
$$

CITY           SKY/WX    TMP DP  RH WIND       PRES   REMARKS
BILLINGS       MOCLDY    21  10  62 SW16      29.90F WCI   7
GREAT FALLS    LGT SNOW  27  24  89 S21       29.80F FOG     WCI  13
$$




USA.gov is the U.S. government's official web portal to all federal, state and local government web resources and services.